TIANWANG 1B (TW-1B)
1 40927U 15051C   19328.58178294  .00014350  00000-0  19756-3 0  9995
2 40927  97.1192  13.7355 0008551 141.8064  16.9087 15.57311451234711
TIANWANG 1A (TW-1A)
1 40928U 15051D   19328.44420512  .00002610  00000-0  64014-4 0  9998
2 40928  97.1314 356.1808 0009904 209.5621 258.4349 15.41563289233623
LAPAN A2
1 40931U 15052B   19324.69785557 -.00020420  00000-0 -29507-2 0  9996
2 40931   5.9963  31.2247 0013118 192.9224 166.9491 14.76583141224210
LQSAT
1 40958U 15057A   19327.62700865 +.00000013 +00000-0 +95939-5 0  9994
2 40958 097.8821 032.4123 0019583 094.4718 265.8728 14.73097270222067
CHUBUSAT 2
1 41338U 16012B   19327.11757002  .00000311  00000-0  17393-4 0  9996
2 41338  31.0026 224.2713 0013936 222.9893 136.9654 15.00211627206570
CHUBUSAT 3
1 41339U 16012C   19328.13328592  .00000255  00000-0  13016-4 0  9993
2 41339  31.0119 215.7082 0013995 240.9940 118.9293 15.00382753206721
OUFTI-1
1 41458U 16025C   19327.52392182 +.00002323 +00000-0 +12045-3 0  9995
2 41458 098.1009 062.4062 0165363 185.7577 174.1753 15.06224460196324
E-STAR-2
1 41459U 16025D   19328.37654938  .00001524  00000-0  81122-4 0  9995
2 41459  98.0994  62.8672 0166787 184.4867 175.4885 15.05832482196426
AAUSAT 4
1 41460U 16025E   19328.34671522  .00004036  00000-0  20216-3 0  9999
2 41460  98.0967  64.4998 0156575 175.9529 184.3005 15.07888264196571
NUSAT 1
1 41557U 16033B   19328.52413840  .00001521  00000-0  59036-4 0  9991
2 41557  97.4135  55.0869 0015366  96.3118 263.9872 15.27553243194339
BEESAT 4
1 41619U 16040W   19328.15626618  .00001624  00000-0  70911-4 0  9995
2 41619  97.3492  27.2902 0011278 177.9111 182.2176 15.23485372177984
PRATHAM
1 41783U 16059A   19327.58759603  .00000049  00000-0  18733-4 0  9998
2 41783  98.0483  23.5181 0032397 246.4260 113.3538 14.63021952168636
ALSAT 1N
1 41789U 16059G   19328.26135206  .00000068  00000-0  21986-4 0  9992
2 41789  98.0512  26.5231 0027390 232.6512 127.2198 14.64277891168854
NAYIF 1
1 42017U 17008BX  19328.15328688  .00001712  00000-0  69560-4 0  9995
2 42017  97.3866  33.4949 0005556 345.9720  14.1364 15.25919387154085
MAX VALIER SAT
1 42778U 17036P   19327.63316644  .00001017  00000-0  47119-4 0  9995
2 42778  97.3355  21.6667 0013135  36.5527 323.6603 15.22263389134261
